owner,sensor,date,latitude,longitude,vertical_datum,sea_water_temperature,qcFlag 
WAVCIS,ioos:station:WAVCIS:CSI09:1,2009-01-01T00:00:00Z,29.1015,-89.9782,0.0,-22.3,11144222 
WAVCIS,ioos:station:WAVCIS:CSI09:1,2009-01-01T01:00:00Z,29.1015,-89.9782,0.0,-22.22,11144222 
WAVCIS,ioos:station:WAVCIS:CSI09:1,2009-01-01T02:00:00Z,29.1015,-89.9782,0.0,-22.48,11144222 
WAVCIS,ioos:station:WAVCIS:CSI09:1,2009-01-01T03:00:00Z,29.1015,-89.9782,0.0,-22.77,11144222 
WAVCIS,ioos:station:WAVCIS:CSI09:1,2009-01-01T04:00:00Z,29.1015,-89.9782,0.0,-22.41,11144222 
WAVCIS,ioos:station:WAVCIS:CSI09:1,2009-01-01T05:00:00Z,29.1015,-89.9782,0.0,-22.35,11144222 
WAVCIS,ioos:station:WAVCIS:CSI09:1,2009-01-01T06:00:00Z,29.1015,-89.9782,0.0,-22.26,11144222 
WAVCIS,ioos:station:WAVCIS:CSI09:1,2009-01-01T07:00:00Z,29.1015,-89.9782,0.0,-22.56,11144222 
WAVCIS,ioos:station:WAVCIS:CSI09:1,2009-01-01T08:00:00Z,29.1015,-89.9782,0.0,-22.7,11144222 
WAVCIS,ioos:station:WAVCIS:CSI09:1,2009-01-01T09:00:00Z,29.1015,-89.9782,0.0,-22.74,11144222 
WAVCIS,ioos:station:WAVCIS:CSI09:1,2009-01-01T10:00:00Z,29.1015,-89.9782,0.0,-23.16,11144222 
WAVCIS,ioos:station:WAVCIS:CSI09:1,2009-01-01T11:00:00Z,29.1015,-89.9782,0.0,-22.73,11144222 
WAVCIS,ioos:station:WAVCIS:CSI09:1,2009-01-01T12:00:00Z,29.1015,-89.9782,0.0,-22.73,11144222 
WAVCIS,ioos:station:WAVCIS:CSI09:1,2009-01-01T13:00:00Z,29.1015,-89.9782,0.0,-22.69,11144222 
WAVCIS,ioos:station:WAVCIS:CSI09:1,2009-01-01T14:00:00Z,29.1015,-89.9782,0.0,-22.73,11144222 
WAVCIS,ioos:station:WAVCIS:CSI09:1,2009-01-01T15:00:00Z,29.1015,-89.9782,0.0,-22.71,11144222 
WAVCIS,ioos:station:WAVCIS:CSI09:1,2009-01-01T16:00:00Z,29.1015,-89.9782,0.0,-22.83,11144222 
WAVCIS,ioos:station:WAVCIS:CSI09:1,2009-01-01T17:00:00Z,29.1015,-89.9782,0.0,-22.81,11144222 
WAVCIS,ioos:station:WAVCIS:CSI09:1,2009-01-01T18:00:00Z,29.1015,-89.9782,0.0,-22.82,11144222 
WAVCIS,ioos:station:WAVCIS:CSI09:1,2009-01-01T19:00:00Z,29.1015,-89.9782,0.0,-22.72,11144222 
WAVCIS,ioos:station:WAVCIS:CSI09:1,2009-01-01T20:00:00Z,29.1015,-89.9782,0.0,-22.76,11144222 
WAVCIS,ioos:station:WAVCIS:CSI09:1,2009-01-01T21:00:00Z,29.1015,-89.9782,0.0,-22.64,11144222 
WAVCIS,ioos:station:WAVCIS:CSI09:1,2009-01-01T22:00:00Z,29.1015,-89.9782,0.0,-22.65,11144222 
WAVCIS,ioos:station:WAVCIS:CSI09:1,2009-01-01T23:00:00Z,29.1015,-89.9782,0.0,-22.65,11144222 
WAVCIS,ioos:station:WAVCIS:CSI09:1,2009-01-02T00:00:00Z,29.1015,-89.9782,0.0,-23.04,11144222 
WAVCIS,ioos:station:WAVCIS:CSI09:1,2009-01-02T01:00:00Z,29.1015,-89.9782,0.0,-22.76,11144222 
WAVCIS,ioos:station:WAVCIS:CSI09:1,2009-01-02T02:00:00Z,29.1015,-89.9782,0.0,-22.98,11144222 
WAVCIS,ioos:station:WAVCIS:CSI09:1,2009-01-02T03:00:00Z,29.1015,-89.9782,0.0,-22.73,11144222 
WAVCIS,ioos:station:WAVCIS:CSI09:1,2009-01-02T04:00:00Z,29.1015,-89.9782,0.0,-22.53,11144222 
WAVCIS,ioos:station:WAVCIS:CSI09:1,2009-01-02T05:00:00Z,29.1015,-89.9782,0.0,-22.55,11144222 
WAVCIS,ioos:station:WAVCIS:CSI09:1,2009-01-02T06:00:00Z,29.1015,-89.9782,0.0,-22.44,11144222 
WAVCIS,ioos:station:WAVCIS:CSI09:1,2009-01-02T07:00:00Z,29.1015,-89.9782,0.0,-22.53,11144222 
WAVCIS,ioos:station:WAVCIS:CSI09:1,2009-01-02T08:00:00Z,29.1015,-89.9782,0.0,-22.35,11144222 
WAVCIS,ioos:station:WAVCIS:CSI09:1,2009-01-02T09:00:00Z,29.1015,-89.9782,0.0,-22.5,11144222 
WAVCIS,ioos:station:WAVCIS:CSI09:1,2009-01-02T10:00:00Z,29.1015,-89.9782,0.0,-22.3,11144222 
WAVCIS,ioos:station:WAVCIS:CSI09:1,2009-01-02T11:00:00Z,29.1015,-89.9782,0.0,-22.4,11144222 
WAVCIS,ioos:station:WAVCIS:CSI09:1,2009-01-02T12:00:00Z,29.1015,-89.9782,0.0,-22.35,11144222 
WAVCIS,ioos:station:WAVCIS:CSI09:1,2009-01-02T13:00:00Z,29.1015,-89.9782,0.0,-22.16,11144222 
WAVCIS,ioos:station:WAVCIS:CSI09:1,2009-01-02T14:00:00Z,29.1015,-89.9782,0.0,-22.23,11144222 
WAVCIS,ioos:station:WAVCIS:CSI09:1,2009-01-02T15:00:00Z,29.1015,-89.9782,0.0,-22.27,11144222 
WAVCIS,ioos:station:WAVCIS:CSI09:1,2009-01-02T16:00:00Z,29.1015,-89.9782,0.0,-22.24,11144222 
WAVCIS,ioos:station:WAVCIS:CSI09:1,2009-01-02T17:00:00Z,29.1015,-89.9782,0.0,-22.18,11144222 
WAVCIS,ioos:station:WAVCIS:CSI09:1,2009-01-02T18:00:00Z,29.1015,-89.9782,0.0,-22.08,11144222 
WAVCIS,ioos:station:WAVCIS:CSI09:1,2009-01-02T19:00:00Z,29.1015,-89.9782,0.0,-22.31,11144222 
WAVCIS,ioos:station:WAVCIS:CSI09:1,2009-01-02T20:00:00Z,29.1015,-89.9782,0.0,-22.06,11144222 
WAVCIS,ioos:station:WAVCIS:CSI09:1,2009-01-02T21:00:00Z,29.1015,-89.9782,0.0,-22.07,11144222 
WAVCIS,ioos:station:WAVCIS:CSI09:1,2009-01-02T22:00:00Z,29.1015,-89.9782,0.0,-22.33,11144222 
WAVCIS,ioos:station:WAVCIS:CSI09:1,2009-01-02T23:00:00Z,29.1015,-89.9782,0.0,-22.54,11144222 
WAVCIS,ioos:station:WAVCIS:CSI09:1,2009-01-03T00:00:00Z,29.1015,-89.9782,0.0,-22.48,11144222 
WAVCIS,ioos:station:WAVCIS:CSI09:1,2009-01-03T01:00:00Z,29.1015,-89.9782,0.0,-22.37,11144222 
WAVCIS,ioos:station:WAVCIS:CSI09:1,2009-01-03T02:00:00Z,29.1015,-89.9782,0.0,-22.59,11144222 
WAVCIS,ioos:station:WAVCIS:CSI09:1,2009-01-03T03:00:00Z,29.1015,-89.9782,0.0,-22.72,11144222 
WAVCIS,ioos:station:WAVCIS:CSI09:1,2009-01-03T04:00:00Z,29.1015,-89.9782,0.0,-22.5,11144222 
WAVCIS,ioos:station:WAVCIS:CSI09:1,2009-01-03T05:00:00Z,29.1015,-89.9782,0.0,-22.44,11144222 
WAVCIS,ioos:station:WAVCIS:CSI09:1,2009-01-03T06:00:00Z,29.1015,-89.9782,0.0,-22.51,11144222 
WAVCIS,ioos:station:WAVCIS:CSI09:1,2009-01-03T07:00:00Z,29.1015,-89.9782,0.0,-22.5,11144222 
WAVCIS,ioos:station:WAVCIS:CSI09:1,2009-01-03T08:00:00Z,29.1015,-89.9782,0.0,-22.33,11144222 
WAVCIS,ioos:station:WAVCIS:CSI09:1,2009-01-03T09:00:00Z,29.1015,-89.9782,0.0,-22.42,11144222 
WAVCIS,ioos:station:WAVCIS:CSI09:1,2009-01-03T10:00:00Z,29.1015,-89.9782,0.0,-22.5,11144222 
WAVCIS,ioos:station:WAVCIS:CSI09:1,2009-01-03T11:00:00Z,29.1015,-89.9782,0.0,-22.34,11144222 
WAVCIS,ioos:station:WAVCIS:CSI09:1,2009-01-03T12:00:00Z,29.1015,-89.9782,0.0,-22.25,11144222 
WAVCIS,ioos:station:WAVCIS:CSI09:1,2009-01-03T13:00:00Z,29.1015,-89.9782,0.0,-22.26,11144222 
WAVCIS,ioos:station:WAVCIS:CSI09:1,2009-01-03T14:00:00Z,29.1015,-89.9782,0.0,-22.22,11144222 
WAVCIS,ioos:station:WAVCIS:CSI09:1,2009-01-03T15:00:00Z,29.1015,-89.9782,0.0,-22.3,11144222 
WAVCIS,ioos:station:WAVCIS:CSI09:1,2009-01-03T16:00:00Z,29.1015,-89.9782,0.0,-21.9,11144222 
WAVCIS,ioos:station:WAVCIS:CSI09:1,2009-01-03T17:00:00Z,29.1015,-89.9782,0.0,-24.97,11144222 
WAVCIS,ioos:station:WAVCIS:CSI09:1,2009-01-03T18:00:00Z,29.1015,-89.9782,0.0,-24.94,11144222 
WAVCIS,ioos:station:WAVCIS:CSI09:1,2009-01-03T19:00:00Z,29.1015,-89.9782,0.0,-24.98,11144222 
WAVCIS,ioos:station:WAVCIS:CSI09:1,2009-01-03T20:00:00Z,29.1015,-89.9782,0.0,-22.48,11144222 
WAVCIS,ioos:station:WAVCIS:CSI09:1,2009-01-03T21:00:00Z,29.1015,-89.9782,0.0,-24.99,11144222 
WAVCIS,ioos:station:WAVCIS:CSI09:1,2009-01-03T22:00:00Z,29.1015,-89.9782,0.0,-22.5,11144222 
WAVCIS,ioos:station:WAVCIS:CSI09:1,2009-01-03T23:00:00Z,29.1015,-89.9782,0.0,-22.69,11144222 
WAVCIS,ioos:station:WAVCIS:CSI09:1,2009-01-04T00:00:00Z,29.1015,-89.9782,0.0,-22.99,11144222 
WAVCIS,ioos:station:WAVCIS:CSI09:1,2009-01-04T01:00:00Z,29.1015,-89.9782,0.0,-23.93,11144222 
WAVCIS,ioos:station:WAVCIS:CSI09:1,2009-01-04T02:00:00Z,29.1015,-89.9782,0.0,-23.71,11144222 
WAVCIS,ioos:station:WAVCIS:CSI09:1,2009-01-04T03:00:00Z,29.1015,-89.9782,0.0,-24.88,11144222 
WAVCIS,ioos:station:WAVCIS:CSI09:1,2009-01-04T04:00:00Z,29.1015,-89.9782,0.0,-24.11,11144222 
WAVCIS,ioos:station:WAVCIS:CSI09:1,2009-01-04T05:00:00Z,29.1015,-89.9782,0.0,-23.62,11144222 
WAVCIS,ioos:station:WAVCIS:CSI09:1,2009-01-04T06:00:00Z,29.1015,-89.9782,0.0,-23.1,11144222 
WAVCIS,ioos:station:WAVCIS:CSI09:1,2009-01-04T07:00:00Z,29.1015,-89.9782,0.0,-22.66,11144222 
WAVCIS,ioos:station:WAVCIS:CSI09:1,2009-01-04T08:00:00Z,29.1015,-89.9782,0.0,-23.32,11144222 
WAVCIS,ioos:station:WAVCIS:CSI09:1,2009-01-04T09:00:00Z,29.1015,-89.9782,0.0,-23.11,11144222 
WAVCIS,ioos:station:WAVCIS:CSI09:1,2009-01-04T10:00:00Z,29.1015,-89.9782,0.0,-21.54,11144222 
WAVCIS,ioos:station:WAVCIS:CSI09:1,2009-01-04T11:00:00Z,29.1015,-89.9782,0.0,-21.66,11144222 
WAVCIS,ioos:station:WAVCIS:CSI09:1,2009-01-04T12:00:00Z,29.1015,-89.9782,0.0,-21.8,11144222 
WAVCIS,ioos:station:WAVCIS:CSI09:1,2009-01-04T13:00:00Z,29.1015,-89.9782,0.0,-21.69,11144222 
WAVCIS,ioos:station:WAVCIS:CSI09:1,2009-01-04T14:00:00Z,29.1015,-89.9782,0.0,-22.01,11144222 
WAVCIS,ioos:station:WAVCIS:CSI09:1,2009-01-04T15:00:00Z,29.1015,-89.9782,0.0,-21.91,11144222 
WAVCIS,ioos:station:WAVCIS:CSI09:1,2009-01-04T16:00:00Z,29.1015,-89.9782,0.0,-21.7,11144222 
WAVCIS,ioos:station:WAVCIS:CSI09:1,2009-01-04T17:00:00Z,29.1015,-89.9782,0.0,-21.93,11144222 
WAVCIS,ioos:station:WAVCIS:CSI09:1,2009-01-04T18:00:00Z,29.1015,-89.9782,0.0,-21.8,11144222 
WAVCIS,ioos:station:WAVCIS:CSI09:1,2009-01-04T19:00:00Z,29.1015,-89.9782,0.0,-22.54,11144222 
WAVCIS,ioos:station:WAVCIS:CSI09:1,2009-01-04T20:00:00Z,29.1015,-89.9782,0.0,-21.92,11144222 
WAVCIS,ioos:station:WAVCIS:CSI09:1,2009-01-04T21:00:00Z,29.1015,-89.9782,0.0,-21.8,11144222 
WAVCIS,ioos:station:WAVCIS:CSI09:1,2009-01-04T22:00:00Z,29.1015,-89.9782,0.0,-22.11,11144222 
WAVCIS,ioos:station:WAVCIS:CSI09:1,2009-01-04T23:00:00Z,29.1015,-89.9782,0.0,-21.93,11144222 
WAVCIS,ioos:station:WAVCIS:CSI09:1,2009-01-05T00:00:00Z,29.1015,-89.9782,0.0,-22.09,11144222 
WAVCIS,ioos:station:WAVCIS:CSI09:1,2009-01-05T01:00:00Z,29.1015,-89.9782,0.0,-22.14,11144222 
WAVCIS,ioos:station:WAVCIS:CSI09:1,2009-01-05T02:00:00Z,29.1015,-89.9782,0.0,-21.4,11144222 
WAVCIS,ioos:station:WAVCIS:CSI09:1,2009-01-05T03:00:00Z,29.1015,-89.9782,0.0,-20.72,11144222 
WAVCIS,ioos:station:WAVCIS:CSI09:1,2009-01-05T04:00:00Z,29.1015,-89.9782,0.0,-20.35,11144222 
WAVCIS,ioos:station:WAVCIS:CSI09:1,2009-01-05T05:00:00Z,29.1015,-89.9782,0.0,-20.64,11144222 
WAVCIS,ioos:station:WAVCIS:CSI09:1,2009-01-05T06:00:00Z,29.1015,-89.9782,0.0,-20.75,11144222 
WAVCIS,ioos:station:WAVCIS:CSI09:1,2009-01-05T07:00:00Z,29.1015,-89.9782,0.0,-20.7,11144222 
WAVCIS,ioos:station:WAVCIS:CSI09:1,2009-01-05T08:00:00Z,29.1015,-89.9782,0.0,-20.44,11144222 
WAVCIS,ioos:station:WAVCIS:CSI09:1,2009-01-05T09:00:00Z,29.1015,-89.9782,0.0,-20.62,11144222 
WAVCIS,ioos:station:WAVCIS:CSI09:1,2009-01-05T10:00:00Z,29.1015,-89.9782,0.0,-20.89,11144222 
WAVCIS,ioos:station:WAVCIS:CSI09:1,2009-01-05T11:00:00Z,29.1015,-89.9782,0.0,-21.08,11144222 
WAVCIS,ioos:station:WAVCIS:CSI09:1,2009-01-05T12:00:00Z,29.1015,-89.9782,0.0,-20.96,11144222 
WAVCIS,ioos:station:WAVCIS:CSI09:1,2009-01-05T13:00:00Z,29.1015,-89.9782,0.0,-21.04,11144222 
WAVCIS,ioos:station:WAVCIS:CSI09:1,2009-01-05T14:00:00Z,29.1015,-89.9782,0.0,-20.95,11144222 
WAVCIS,ioos:station:WAVCIS:CSI09:1,2009-01-05T15:00:00Z,29.1015,-89.9782,0.0,-20.75,11144222 
WAVCIS,ioos:station:WAVCIS:CSI09:1,2009-01-05T16:00:00Z,29.1015,-89.9782,0.0,-20.6,11144222 
WAVCIS,ioos:station:WAVCIS:CSI09:1,2009-01-05T17:00:00Z,29.1015,-89.9782,0.0,-20.58,11144222 
WAVCIS,ioos:station:WAVCIS:CSI09:1,2009-01-05T18:00:00Z,29.1015,-89.9782,0.0,-20.61,11144222 
WAVCIS,ioos:station:WAVCIS:CSI09:1,2009-01-05T19:00:00Z,29.1015,-89.9782,0.0,-20.57,11144222 
WAVCIS,ioos:station:WAVCIS:CSI09:1,2009-01-05T20:00:00Z,29.1015,-89.9782,0.0,-20.57,11144222 
WAVCIS,ioos:station:WAVCIS:CSI09:1,2009-01-05T21:00:00Z,29.1015,-89.9782,0.0,-20.73,11144222 
WAVCIS,ioos:station:WAVCIS:CSI09:1,2009-01-05T22:00:00Z,29.1015,-89.9782,0.0,-20.55,11144222 
WAVCIS,ioos:station:WAVCIS:CSI09:1,2009-01-05T23:00:00Z,29.1015,-89.9782,0.0,-20.84,11144222 
WAVCIS,ioos:station:WAVCIS:CSI09:1,2009-01-06T00:00:00Z,29.1015,-89.9782,0.0,-21.09,11144222 
WAVCIS,ioos:station:WAVCIS:CSI09:1,2009-01-06T01:00:00Z,29.1015,-89.9782,0.0,-21.13,11144222 
WAVCIS,ioos:station:WAVCIS:CSI09:1,2009-01-06T02:00:00Z,29.1015,-89.9782,0.0,-21.03,11144222 
WAVCIS,ioos:station:WAVCIS:CSI09:1,2009-01-06T03:00:00Z,29.1015,-89.9782,0.0,-21.19,11144222 
WAVCIS,ioos:station:WAVCIS:CSI09:1,2009-01-06T04:00:00Z,29.1015,-89.9782,0.0,-21.0,11144222 
WAVCIS,ioos:station:WAVCIS:CSI09:1,2009-01-06T05:00:00Z,29.1015,-89.9782,0.0,-21.29,11144222 
WAVCIS,ioos:station:WAVCIS:CSI09:1,2009-01-06T06:00:00Z,29.1015,-89.9782,0.0,-20.91,11144222 
WAVCIS,ioos:station:WAVCIS:CSI09:1,2009-01-06T07:00:00Z,29.1015,-89.9782,0.0,-21.09,11144222 
WAVCIS,ioos:station:WAVCIS:CSI09:1,2009-01-06T08:00:00Z,29.1015,-89.9782,0.0,-20.74,11144222 
WAVCIS,ioos:station:WAVCIS:CSI09:1,2009-01-06T09:00:00Z,29.1015,-89.9782,0.0,-20.79,11144222 
WAVCIS,ioos:station:WAVCIS:CSI09:1,2009-01-06T10:00:00Z,29.1015,-89.9782,0.0,-20.63,11144222 
WAVCIS,ioos:station:WAVCIS:CSI09:1,2009-01-06T11:00:00Z,29.1015,-89.9782,0.0,-20.7,11144222 
WAVCIS,ioos:station:WAVCIS:CSI09:1,2009-01-06T12:00:00Z,29.1015,-89.9782,0.0,-20.85,11144222 
WAVCIS,ioos:station:WAVCIS:CSI09:1,2009-01-06T13:00:00Z,29.1015,-89.9782,0.0,-20.79,11144222 
WAVCIS,ioos:station:WAVCIS:CSI09:1,2009-01-06T14:00:00Z,29.1015,-89.9782,0.0,-20.82,11144222 
WAVCIS,ioos:station:WAVCIS:CSI09:1,2009-01-06T15:00:00Z,29.1015,-89.9782,0.0,-20.56,11144222 
WAVCIS,ioos:station:WAVCIS:CSI09:1,2009-01-06T16:00:00Z,29.1015,-89.9782,0.0,-20.34,11144222 
WAVCIS,ioos:station:WAVCIS:CSI09:1,2009-01-06T17:00:00Z,29.1015,-89.9782,0.0,-20.3,11144222 
WAVCIS,ioos:station:WAVCIS:CSI09:1,2009-01-06T18:00:00Z,29.1015,-89.9782,0.0,-20.43,11144222 
WAVCIS,ioos:station:WAVCIS:CSI09:1,2009-01-06T19:00:00Z,29.1015,-89.9782,0.0,-20.57,11144222 
WAVCIS,ioos:station:WAVCIS:CSI09:1,2009-01-06T20:00:00Z,29.1015,-89.9782,0.0,-20.5,11144222 
WAVCIS,ioos:station:WAVCIS:CSI09:1,2009-01-06T21:00:00Z,29.1015,-89.9782,0.0,-20.58,11144222 
WAVCIS,ioos:station:WAVCIS:CSI09:1,2009-01-06T22:00:00Z,29.1015,-89.9782,0.0,-20.61,11144222 
WAVCIS,ioos:station:WAVCIS:CSI09:1,2009-01-06T23:00:00Z,29.1015,-89.9782,0.0,-20.93,11144222 
WAVCIS,ioos:station:WAVCIS:CSI09:1,2009-01-07T00:00:00Z,29.1015,-89.9782,0.0,-20.8,11144222 
WAVCIS,ioos:station:WAVCIS:CSI09:1,2009-01-07T01:00:00Z,29.1015,-89.9782,0.0,-20.8,11144222 
WAVCIS,ioos:station:WAVCIS:CSI09:1,2009-01-07T02:00:00Z,29.1015,-89.9782,0.0,-20.62,11144222 
WAVCIS,ioos:station:WAVCIS:CSI09:1,2009-01-07T03:00:00Z,29.1015,-89.9782,0.0,-20.82,11144222 
WAVCIS,ioos:station:WAVCIS:CSI09:1,2009-01-07T04:00:00Z,29.1015,-89.9782,0.0,-20.59,11144222 
WAVCIS,ioos:station:WAVCIS:CSI09:1,2009-01-07T05:00:00Z,29.1015,-89.9782,0.0,-20.47,11144222 
WAVCIS,ioos:station:WAVCIS:CSI09:1,2009-01-07T06:00:00Z,29.1015,-89.9782,0.0,-20.59,11144222 
WAVCIS,ioos:station:WAVCIS:CSI09:1,2009-01-07T07:00:00Z,29.1015,-89.9782,0.0,-20.96,11144222 
WAVCIS,ioos:station:WAVCIS:CSI09:1,2009-01-07T08:00:00Z,29.1015,-89.9782,0.0,-20.85,11144222 
WAVCIS,ioos:station:WAVCIS:CSI09:1,2009-01-07T09:00:00Z,29.1015,-89.9782,0.0,-20.71,11144222 
WAVCIS,ioos:station:WAVCIS:CSI09:1,2009-01-07T10:00:00Z,29.1015,-89.9782,0.0,-20.47,11144222 
WAVCIS,ioos:station:WAVCIS:CSI09:1,2009-01-07T11:00:00Z,29.1015,-89.9782,0.0,-20.7,11144222 
WAVCIS,ioos:station:WAVCIS:CSI09:1,2009-01-07T12:00:00Z,29.1015,-89.9782,0.0,-20.73,11144222 
WAVCIS,ioos:station:WAVCIS:CSI09:1,2009-01-07T13:00:00Z,29.1015,-89.9782,0.0,-20.66,11144222 
WAVCIS,ioos:station:WAVCIS:CSI09:1,2009-01-07T14:00:00Z,29.1015,-89.9782,0.0,-20.62,11144222 
WAVCIS,ioos:station:WAVCIS:CSI09:1,2009-01-07T15:00:00Z,29.1015,-89.9782,0.0,-20.42,11144222 
WAVCIS,ioos:station:WAVCIS:CSI09:1,2009-01-07T16:00:00Z,29.1015,-89.9782,0.0,-20.57,11144222 
WAVCIS,ioos:station:WAVCIS:CSI09:1,2009-01-07T17:00:00Z,29.1015,-89.9782,0.0,-20.82,11144222 
WAVCIS,ioos:station:WAVCIS:CSI09:1,2009-01-07T18:00:00Z,29.1015,-89.9782,0.0,-20.71,11144222 
WAVCIS,ioos:station:WAVCIS:CSI09:1,2009-01-07T19:00:00Z,29.1015,-89.9782,0.0,-20.76,11144222 
WAVCIS,ioos:station:WAVCIS:CSI09:1,2009-01-07T20:00:00Z,29.1015,-89.9782,0.0,-20.76,11144222 
WAVCIS,ioos:station:WAVCIS:CSI09:1,2009-01-07T21:00:00Z,29.1015,-89.9782,0.0,-21.01,11144222 
WAVCIS,ioos:station:WAVCIS:CSI09:1,2009-01-07T22:00:00Z,29.1015,-89.9782,0.0,-21.04,11144222 
WAVCIS,ioos:station:WAVCIS:CSI09:1,2009-01-07T23:00:00Z,29.1015,-89.9782,0.0,-21.22,11144222 
WAVCIS,ioos:station:WAVCIS:CSI09:1,2009-01-08T00:00:00Z,29.1015,-89.9782,0.0,-21.17,11144222 
WAVCIS,ioos:station:WAVCIS:CSI09:1,2009-01-08T01:00:00Z,29.1015,-89.9782,0.0,-21.26,11144222 
WAVCIS,ioos:station:WAVCIS:CSI09:1,2009-01-08T02:00:00Z,29.1015,-89.9782,0.0,-21.29,11144222 
WAVCIS,ioos:station:WAVCIS:CSI09:1,2009-01-08T03:00:00Z,29.1015,-89.9782,0.0,-21.13,11144222 
WAVCIS,ioos:station:WAVCIS:CSI09:1,2009-01-08T04:00:00Z,29.1015,-89.9782,0.0,-21.47,11144222 
WAVCIS,ioos:station:WAVCIS:CSI09:1,2009-01-08T05:00:00Z,29.1015,-89.9782,0.0,-21.22,11144222 
WAVCIS,ioos:station:WAVCIS:CSI09:1,2009-01-08T06:00:00Z,29.1015,-89.9782,0.0,-21.13,11144222 
WAVCIS,ioos:station:WAVCIS:CSI09:1,2009-01-08T07:00:00Z,29.1015,-89.9782,0.0,-21.07,11144222 
WAVCIS,ioos:station:WAVCIS:CSI09:1,2009-01-08T08:00:00Z,29.1015,-89.9782,0.0,-20.86,11144222 
WAVCIS,ioos:station:WAVCIS:CSI09:1,2009-01-08T09:00:00Z,29.1015,-89.9782,0.0,-20.9,11144222 
WAVCIS,ioos:station:WAVCIS:CSI09:1,2009-01-08T10:00:00Z,29.1015,-89.9782,0.0,-20.86,11144222 
WAVCIS,ioos:station:WAVCIS:CSI09:1,2009-01-08T11:00:00Z,29.1015,-89.9782,0.0,-20.72,11144222 
WAVCIS,ioos:station:WAVCIS:CSI09:1,2009-01-08T12:00:00Z,29.1015,-89.9782,0.0,-20.88,11144222 
WAVCIS,ioos:station:WAVCIS:CSI09:1,2009-01-08T13:00:00Z,29.1015,-89.9782,0.0,-20.74,11144222 
WAVCIS,ioos:station:WAVCIS:CSI09:1,2009-01-08T14:00:00Z,29.1015,-89.9782,0.0,-20.58,11144222 
WAVCIS,ioos:station:WAVCIS:CSI09:1,2009-01-08T15:00:00Z,29.1015,-89.9782,0.0,-20.8,11144222 
WAVCIS,ioos:station:WAVCIS:CSI09:1,2009-01-08T16:00:00Z,29.1015,-89.9782,0.0,-20.65,11144222 
WAVCIS,ioos:station:WAVCIS:CSI09:1,2009-01-08T17:00:00Z,29.1015,-89.9782,0.0,-20.72,11144222 
WAVCIS,ioos:station:WAVCIS:CSI09:1,2009-01-08T18:00:00Z,29.1015,-89.9782,0.0,-20.33,11144222 
WAVCIS,ioos:station:WAVCIS:CSI09:1,2009-01-08T19:00:00Z,29.1015,-89.9782,0.0,-20.48,11144222 
WAVCIS,ioos:station:WAVCIS:CSI09:1,2009-01-08T20:00:00Z,29.1015,-89.9782,0.0,-20.23,11144222 
WAVCIS,ioos:station:WAVCIS:CSI09:1,2009-01-08T21:00:00Z,29.1015,-89.9782,0.0,-20.32,11144222 
WAVCIS,ioos:station:WAVCIS:CSI09:1,2009-01-08T22:00:00Z,29.1015,-89.9782,0.0,-20.5,11144222 
WAVCIS,ioos:station:WAVCIS:CSI09:1,2009-01-08T23:00:00Z,29.1015,-89.9782,0.0,-20.5,11144222 
WAVCIS,ioos:station:WAVCIS:CSI09:1,2009-01-09T00:00:00Z,29.1015,-89.9782,0.0,-20.81,11144222 
WAVCIS,ioos:station:WAVCIS:CSI09:1,2009-01-09T01:00:00Z,29.1015,-89.9782,0.0,-20.79,11144222 
WAVCIS,ioos:station:WAVCIS:CSI09:1,2009-01-09T02:00:00Z,29.1015,-89.9782,0.0,-20.53,11144222 
WAVCIS,ioos:station:WAVCIS:CSI09:1,2009-01-09T03:00:00Z,29.1015,-89.9782,0.0,-20.76,11144222 
WAVCIS,ioos:station:WAVCIS:CSI09:1,2009-01-09T04:00:00Z,29.1015,-89.9782,0.0,-20.61,11144222 
WAVCIS,ioos:station:WAVCIS:CSI09:1,2009-01-09T05:00:00Z,29.1015,-89.9782,0.0,-20.74,11144222 
WAVCIS,ioos:station:WAVCIS:CSI09:1,2009-01-09T06:00:00Z,29.1015,-89.9782,0.0,-20.67,11144222 
WAVCIS,ioos:station:WAVCIS:CSI09:1,2009-01-09T07:00:00Z,29.1015,-89.9782,0.0,-20.8,11144222 
WAVCIS,ioos:station:WAVCIS:CSI09:1,2009-01-09T08:00:00Z,29.1015,-89.9782,0.0,-20.86,11144222 
WAVCIS,ioos:station:WAVCIS:CSI09:1,2009-01-09T09:00:00Z,29.1015,-89.9782,0.0,-20.8,11144222 
WAVCIS,ioos:station:WAVCIS:CSI09:1,2009-01-09T10:00:00Z,29.1015,-89.9782,0.0,-20.83,11144222 
WAVCIS,ioos:station:WAVCIS:CSI09:1,2009-01-09T11:00:00Z,29.1015,-89.9782,0.0,-20.95,11144222 
WAVCIS,ioos:station:WAVCIS:CSI09:1,2009-01-09T12:00:00Z,29.1015,-89.9782,0.0,-21.34,11144222 
WAVCIS,ioos:station:WAVCIS:CSI09:1,2009-01-09T13:00:00Z,29.1015,-89.9782,0.0,-21.23,11144222 
WAVCIS,ioos:station:WAVCIS:CSI09:1,2009-01-09T14:00:00Z,29.1015,-89.9782,0.0,-20.89,11144222 
WAVCIS,ioos:station:WAVCIS:CSI09:1,2009-01-09T15:00:00Z,29.1015,-89.9782,0.0,-21.25,11144222 
WAVCIS,ioos:station:WAVCIS:CSI09:1,2009-01-09T16:00:00Z,29.1015,-89.9782,0.0,-20.74,11144222 
WAVCIS,ioos:station:WAVCIS:CSI09:1,2009-01-09T17:00:00Z,29.1015,-89.9782,0.0,-20.56,11144222 
WAVCIS,ioos:station:WAVCIS:CSI09:1,2009-01-09T18:00:00Z,29.1015,-89.9782,0.0,-20.61,11144222 
WAVCIS,ioos:station:WAVCIS:CSI09:1,2009-01-09T19:00:00Z,29.1015,-89.9782,0.0,-20.72,11144222 
WAVCIS,ioos:station:WAVCIS:CSI09:1,2009-01-09T20:00:00Z,29.1015,-89.9782,0.0,-20.62,11144222 
WAVCIS,ioos:station:WAVCIS:CSI09:1,2009-01-09T21:00:00Z,29.1015,-89.9782,0.0,-20.45,11144222 
WAVCIS,ioos:station:WAVCIS:CSI09:1,2009-01-09T22:00:00Z,29.1015,-89.9782,0.0,-20.15,11144222 
WAVCIS,ioos:station:WAVCIS:CSI09:1,2009-01-09T23:00:00Z,29.1015,-89.9782,0.0,-20.15,11144222 
WAVCIS,ioos:station:WAVCIS:CSI09:1,2009-01-10T00:00:00Z,29.1015,-89.9782,0.0,-20.13,11144222 
WAVCIS,ioos:station:WAVCIS:CSI09:1,2009-01-10T01:00:00Z,29.1015,-89.9782,0.0,-20.09,11144222 
WAVCIS,ioos:station:WAVCIS:CSI09:1,2009-01-10T02:00:00Z,29.1015,-89.9782,0.0,-19.94,11144222 
WAVCIS,ioos:station:WAVCIS:CSI09:1,2009-01-10T03:00:00Z,29.1015,-89.9782,0.0,-20.15,11144222 
WAVCIS,ioos:station:WAVCIS:CSI09:1,2009-01-10T04:00:00Z,29.1015,-89.9782,0.0,-20.16,11144222 
WAVCIS,ioos:station:WAVCIS:CSI09:1,2009-01-10T05:00:00Z,29.1015,-89.9782,0.0,-20.81,11144222 
WAVCIS,ioos:station:WAVCIS:CSI09:1,2009-01-10T06:00:00Z,29.1015,-89.9782,0.0,-20.3,11144222 
WAVCIS,ioos:station:WAVCIS:CSI09:1,2009-01-10T07:00:00Z,29.1015,-89.9782,0.0,-20.47,11144222 
WAVCIS,ioos:station:WAVCIS:CSI09:1,2009-01-10T08:00:00Z,29.1015,-89.9782,0.0,-20.64,11144222 
WAVCIS,ioos:station:WAVCIS:CSI09:1,2009-01-10T09:00:00Z,29.1015,-89.9782,0.0,-20.84,11144222 
WAVCIS,ioos:station:WAVCIS:CSI09:1,2009-01-10T10:00:00Z,29.1015,-89.9782,0.0,-20.4,11144222 
WAVCIS,ioos:station:WAVCIS:CSI09:1,2009-01-10T11:00:00Z,29.1015,-89.9782,0.0,-20.61,11144222 
WAVCIS,ioos:station:WAVCIS:CSI09:1,2009-01-10T12:00:00Z,29.1015,-89.9782,0.0,-20.87,11144222 
WAVCIS,ioos:station:WAVCIS:CSI09:1,2009-01-10T13:00:00Z,29.1015,-89.9782,0.0,-20.64,11144222 
WAVCIS,ioos:station:WAVCIS:CSI09:1,2009-01-10T14:00:00Z,29.1015,-89.9782,0.0,-20.79,11144222 
WAVCIS,ioos:station:WAVCIS:CSI09:1,2009-01-10T15:00:00Z,29.1015,-89.9782,0.0,-20.73,11144222 
WAVCIS,ioos:station:WAVCIS:CSI09:1,2009-01-10T16:00:00Z,29.1015,-89.9782,0.0,-20.49,11144222 
WAVCIS,ioos:station:WAVCIS:CSI09:1,2009-01-10T17:00:00Z,29.1015,-89.9782,0.0,-20.39,11144222 
WAVCIS,ioos:station:WAVCIS:CSI09:1,2009-01-10T18:00:00Z,29.1015,-89.9782,0.0,-20.6,11144222 
WAVCIS,ioos:station:WAVCIS:CSI09:1,2009-01-10T19:00:00Z,29.1015,-89.9782,0.0,-20.14,11144222 
WAVCIS,ioos:station:WAVCIS:CSI09:1,2009-01-10T20:00:00Z,29.1015,-89.9782,0.0,-20.31,11144222 
WAVCIS,ioos:station:WAVCIS:CSI09:1,2009-01-10T21:00:00Z,29.1015,-89.9782,0.0,-20.43,11144222 
WAVCIS,ioos:station:WAVCIS:CSI09:1,2009-01-10T22:00:00Z,29.1015,-89.9782,0.0,-20.14,11144222 
WAVCIS,ioos:station:WAVCIS:CSI09:1,2009-01-10T23:00:00Z,29.1015,-89.9782,0.0,-20.53,11144222 
WAVCIS,ioos:station:WAVCIS:CSI09:1,2009-01-11T00:00:00Z,29.1015,-89.9782,0.0,-20.46,11144222 
WAVCIS,ioos:station:WAVCIS:CSI09:1,2009-01-11T01:00:00Z,29.1015,-89.9782,0.0,-20.37,11144222 
WAVCIS,ioos:station:WAVCIS:CSI09:1,2009-01-11T02:00:00Z,29.1015,-89.9782,0.0,-20.19,11144222 
WAVCIS,ioos:station:WAVCIS:CSI09:1,2009-01-11T03:00:00Z,29.1015,-89.9782,0.0,-20.87,11144222 
WAVCIS,ioos:station:WAVCIS:CSI09:1,2009-01-11T04:00:00Z,29.1015,-89.9782,0.0,-20.77,11144222 
WAVCIS,ioos:station:WAVCIS:CSI09:1,2009-01-11T05:00:00Z,29.1015,-89.9782,0.0,-20.27,11144222 
WAVCIS,ioos:station:WAVCIS:CSI09:1,2009-01-11T06:00:00Z,29.1015,-89.9782,0.0,-20.62,11144222 
WAVCIS,ioos:station:WAVCIS:CSI09:1,2009-01-11T07:00:00Z,29.1015,-89.9782,0.0,-20.21,11144222 
WAVCIS,ioos:station:WAVCIS:CSI09:1,2009-01-11T08:00:00Z,29.1015,-89.9782,0.0,-20.25,11144222 
WAVCIS,ioos:station:WAVCIS:CSI09:1,2009-01-11T09:00:00Z,29.1015,-89.9782,0.0,-20.51,11144222 
WAVCIS,ioos:station:WAVCIS:CSI09:1,2009-01-11T10:00:00Z,29.1015,-89.9782,0.0,-20.69,11144222 
WAVCIS,ioos:station:WAVCIS:CSI09:1,2009-01-11T11:00:00Z,29.1015,-89.9782,0.0,-21.06,11144222 
WAVCIS,ioos:station:WAVCIS:CSI09:1,2009-01-11T12:00:00Z,29.1015,-89.9782,0.0,-21.45,11144222 
WAVCIS,ioos:station:WAVCIS:CSI09:1,2009-01-11T13:00:00Z,29.1015,-89.9782,0.0,-21.82,11144222 